Regional Weather Roundup
Issued by NWS

Home | Current Version | Previous Version | Graphics & Text | Print | Product List | Glossary On
Versions: 1 2 3 4 5 6 7 8 9 10 11 12 13 14 15 16 17 18 19 20 21 22 23 24 25 26 27 28 29 30 31 32 33 34 35 36 37 38 39 40 41 42 43 44 45 46 47 48 49 50
000
ASUS43 KIND 092159
RWRIN

WEATHER ROUNDUP FOR INDIANA
NATIONAL WEATHER SERVICE INDIANAPOLIS IN
500 PM EST TUE FEB 09 2016

NOTE: "FAIR" INDICATES FEW OR NO CLOUDS BELOW 12,000 FEET WITH NO
SIGNIFICANT WEATHER AND/OR OBSTRUCTIONS TO VISIBILITY.

* - STATION DOES NOT REPORT WEATHER SUCH AS PRECIPITATION OR FOG.

+ - STATION NOT QUALITY CONTROLLED BY THE NATIONAL WEATHER SERVICE.
    USE DATA WITH CAUTION...ESPECIALLY DEWPOINT AND RELATIVE
    HUMIDITY OBSERVATIONS.

INZ001>003-010>013-019-020-092300-
NORTHWEST INDIANA

CITY           SKY/WX    TMP DP  RH WIND       PRES   REMARKS
GARY /AIRPORT/ CLOUDY    19   9  63 W14G25    29.88  WCI   6
MONTICELLO +   FLURRIES  19   9  64 W16       29.86R WCI   4
RENSSELAER +   LGT SNOW  19  12  73 W14       29.88R WCI   6
VALPARAISO     LGT SNOW  19  14  81 MISG      29.85R

$$

LMZ046-743>745-092300-
SOUTHERN LAKE MICHIGAN

STATION/POSITION TIME  TEMP    WIND        PRES    WAVE
                       AIR SEA DIR/SP/G            HT
                 (UTC) (F)     (DEG/KT/KT) (MB)    (FT)
BURNS HARBOR     2120   20     320/ 13/ 19 1011.2R
MICHIGAN CITY    2100   20     270/ 23/ 24   N/A

$$

INZ004-005-014>016-021>024-092300-
NORTH CENTRAL INDIANA

CITY           SKY/WX    TMP DP  RH WIND       PRES   REMARKS
ELKHART        FLURRIES  25  16  68 W13       29.79R WCI  13
GOSHEN         LGT SNOW  23  17  78 W17       29.78R WCI   9
SOUTH BEND     LGT SNOW  20  16  84 NW14      29.81R FOG     WCI   7

$$

INZ006>009-017-018-025>027-092300-
NORTHEAST INDIANA

CITY           SKY/WX    TMP DP  RH WIND       PRES   REMARKS
ANGOLA *+      CLOUDY    25  19  80 NW14      29.71R WCI  13
FORT WAYNE     FLURRIES  34  19  54 W14       29.77R WCI  25

$$

INZ028-029-035-036-043>045-051>053-092300-
WEST CENTRAL INDIANA

CITY           SKY/WX    TMP DP  RH WIND       PRES   REMARKS
GREENCASTLE +  CLOUDY    19   9  63 W8G24     29.89R WCI   9
LAFAYETTE      LGT SNOW  18  12  77 NW15      29.89R WCI   4
TERRE HAUTE    FLURRIES  20  12  71 NW13      29.94R WCI   7

$$

INZ030>032-037>040-046>048-054>057-064-065-092300-
CENTRAL INDIANA

CITY           SKY/WX    TMP DP  RH WIND       PRES   REMARKS
COLUMBUS       FLURRIES  21  18  86 W10       29.88R WCI  10
FRANKFORT +    LGT SNOW  20  11  68 W20       29.87R WCI   4
GREENWOOD *+   CLOUDY    23  18  80 W12G17    29.86R WCI  12
INDIANAPOLIS   FLURRIES  21  12  68 W18G26    29.86R WCI   6
-EAGLE CREEK   LGT SNOW  20  15  81 NW18G24   29.86R WCI   5
KOKOMO *+      CLOUDY    19  14  79 NW17      29.83R WCI   4
MT COMFORT *+  CLOUDY    21  16  79 W16G23    29.84R WCI   7
SHELBYVILLE    LGT SNOW  23  15  71 W15       29.85R WCI  10

$$

INZ033-034-041-042-049-050-058-059-092300-
EAST CENTRAL INDIANA

CITY           SKY/WX    TMP DP  RH WIND       PRES   REMARKS
MUNCIE         LGT SNOW  22  16  78 W15       29.81R WCI   9

$$

INZ060-061-067>069-081>083-085>088-092300-
SOUTHWEST INDIANA

CITY           SKY/WX    TMP DP  RH WIND       PRES   REMARKS
EVANSVILLE     LGT SNOW  23  14  68 W13G21    30.01R WCI  11
HUNTINGBURG *+ CLOUDY    21  14  73 NW12      29.97R WCI   9

$$

INZ062-063-066-070>080-084-089>092-092300-
SOUTH CENTRAL AND SOUTHEAST INDIANA

CITY           SKY/WX    TMP DP  RH WIND       PRES   REMARKS
BLOOMINGTON    LGT SNOW  20  14  77 W13G20    29.89R WCI   7
MADISON *+     CLOUDY    25  16  68 W12       29.89R WCI  14
SEYMOUR +      FLURRIES  25  16  68 W16       29.90R WCI  12

$$




USA.gov is the U.S. government's official web portal to all federal, state and local government web resources and services.